This demonstration page uses our WeatherBlox Daily Observations layout. Learn more.

Left ArrowRight Arrow

44.8408, -93.29828

Hourly Observations for June 22, 2017

Temp ( °F °C ) Dew Point ( °F °C ) Humidity (%) Winds ( mph kmh ) Pressure ( in mb ) Visibility ( mi km ) Precip ( " mm )
12:53 am 00:53 Mostly Cloudy 72 22.2 62 16.7 71 71 ESE 8 13 29.67 1005 10 16 0.00 0.00
1:53 am 01:53 Mostly Cloudy 72 22.2 62 16.7 71 71 Calm 29.68 1005 10 16 0.00 0.00
2:53 am 02:53 Mostly Cloudy 70 21.1 62 16.7 76 76 ESE 7 11 29.63 1003 10 16 0.00 0.00
3:53 am 03:53 Mostly Clear 69 20.6 62 16.7 78 78 SSE 10 17 29.60 1003 10 16 0.00 0.00
4:53 am 04:53 Mostly Cloudy 68 20 62 16.7 81 81 N 3 6 29.64 1004 10 16 0.00 0.00
5:53 am 05:53 Cloudy 70 21.1 63 17.2 79 79 E 5 7 29.67 1005 10 16 0.00 0.00
6:53 am 06:53 Cloudy with Light Rain 69 20.6 64 17.8 84 84 NNW 3 6 29.68 1005 10 16 0.00 0.03
7:53 am 07:53 Cloudy 70 21.1 64 17.8 82 82 E 6 9 29.70 1006 10 16 0.01 0.25
8:53 am 08:53 Mostly Cloudy 72 22.2 65 18.3 79 79 NE 8 13 29.67 1005 10 16 0.00 0.00
9:53 am 09:53 Cloudy with Heavy Rain 70 21.1 63 17.2 79 79 ESE 12 19 29.69 1005 7 11 0.09 2.29
10:53 am 10:53 Cloudy with Nearby Thunderstorms 70 21.1 64 17.8 82 82 WNW 8 13 29.76 1008 10 16 0.01 0.25
11:07 am 11:07 Cloudy with Strong Thunderstorms 69 20.6 65 18.3 87 87 W 7 11 29.80 1009 3 5 0.16 4.06
11:26 am 11:26 Cloudy with Light Rain 68 20 66 18.9 93 93 Calm 29.77 1008 6 10 0.27 6.86
11:53 am 11:53 Cloudy 69 20.6 64 17.8 84 84 VRB 5 7 29.72 1007 9 14 0.29 7.37
12:24 pm 12:24 Cloudy with Light Rain 69 20.6 65 18.3 87 87 E 10 17 29.65 1004 9 14 0.00 0.03
12:53 pm 12:53 Cloudy with Light Rain 70 21.1 66 18.9 87 87 VRB 3 6 29.69 1005 9 14 0.00 0.03
1:53 pm 13:53 Cloudy with Light Rain 70 21.1 65 18.3 84 84 NNW 5 7 29.72 1006 9 14 0.03 0.76
2:53 pm 14:53 Cloudy with Light Rain 69 20.6 65 18.3 87 87 NNW 8 13 29.72 1007 8 13 0.03 0.76
3:03 pm 15:03 Cloudy with Light Rain 68 20 65 18.3 90 90 NNW 9 15 29.74 1007 8 13 0.00 0.03
3:31 pm 15:31 Cloudy 68 20 64 17.8 87 87 NNW 6 9 29.74 1007 10 16 0.00 0.03
3:53 pm 15:53 Cloudy 68 20 64 17.8 87 87 NW 9 15 29.75 1007 10 16 0.00 0.03
4:53 pm 16:53 Cloudy with Light Rain 66 18.9 62 16.7 87 87 NW 8 13 29.74 1007 8 13 0.03 0.76
5:53 pm 17:53 Mostly Cloudy 71 21.7 63 17.2 76 76 W 3 6 29.73 1007 10 16 0.00 0.03
6:53 pm 18:53 Mostly Cloudy 72 22.2 63 17.2 73 73 NW 7 11 29.72 1006 10 16 0.00 0.00
7:53 pm 19:53 Mostly Cloudy 70 21.1 62 16.7 76 76 NW 6 9 29.73 1007 10 16 0.00 0.00
8:53 pm 20:53 Mostly Cloudy 69 20.6 61 16.1 76 76 NW 9 15 29.73 1007 10 16 0.00 0.00
9:53 pm 21:53 Partly Cloudy 66 18.9 60 15.6 81 81 WNW 6 9 29.74 1007 10 16 0.00 0.00
10:53 pm 22:53 Mostly Clear 64 17.8 59 15 84 84 W 3 6 29.74 1007 10 16 0.00 0.00
11:53 pm 23:53 Mostly Clear 64 17.8 58 14.4 81 81 WSW 3 6 29.74 1007 9 14 0.00 0.00

Powered by AerisWeather